Location: Unspecified
(0.0000°N, 0.0000°E)
Time: 11:26:26
(UTC+00:00)

Vanguard 1 - Pass Details

Date: 25 November 2019
Orbit: 652 x 3831 km, 34.3° (Epoch: 07 December)

Event Time Altitude Azimuth Distance (km) Brightness Sun altitude
Rises 02:08:17 0° 221° (SW) 6,955 14.4 -49.7°
Reaches altitude 10° 02:13:09 10° 213° (SSW) 6,280 14.1 -48.7°
Maximum altitude 02:33:16 41° 148° (SSE) 4,805 13.6 -44.4°
Drops below altitude 10° 02:53:09 10° 84° (E) 6,314 14.7 -40.0°
Sets 02:57:55 0° 77° (ENE) 7,006 15.0 -39.0°
